Time,TemperatureF,DewpointF,PressureIn,WindDirection,WindDirectionDegrees,WindSpeedMPH,WindSpeedGustMPH,Humidity,HourlyPrecipIn,Conditions,Clouds,dailyrainin,SoftwareType,DateUTC
2013-03-08 00:00:00,38.3,24.0,30.05,North,-999,-999.0,0.0,56,0.00,,---,0.00,VWS V14.01,2013-03-08 05:00:00,
2013-03-08 00:01:00,38.3,24.0,30.05,North,-999,-999.0,0.0,56,0.00,,---,0.00,VWS V14.01,2013-03-08 05:01:00,
2013-03-08 00:05:00,38.2,23.9,30.05,North,-999,-999.0,0.0,56,0.00,,---,0.00,VWS V14.01,2013-03-08 05:05:00,
2013-03-08 00:09:00,38.0,24.1,30.05,North,-999,-999.0,0.0,57,0.00,,---,0.00,VWS V14.01,2013-03-08 05:09:00,
2013-03-08 00:14:00,37.8,24.0,30.05,North,-999,-999.0,0.0,57,0.00,,---,0.00,VWS V14.01,2013-03-08 05:14:00,
2013-03-08 00:19:00,37.6,24.2,30.05,North,-999,-999.0,0.0,58,0.00,,---,0.00,VWS V14.01,2013-03-08 05:19:00,
2013-03-08 00:24:00,37.4,24.0,30.05,North,-999,-999.0,0.0,58,0.00,,---,0.00,VWS V14.01,2013-03-08 05:24:00,
2013-03-08 00:29:00,37.3,23.9,30.05,North,-999,-999.0,0.0,58,0.00,,---,0.00,VWS V14.01,2013-03-08 05:29:00,
2013-03-08 00:34:00,37.1,24.1,30.05,North,-999,-999.0,0.0,59,0.00,,---,0.00,VWS V14.01,2013-03-08 05:34:00,
2013-03-08 00:40:00,36.7,23.7,30.05,North,-999,-999.0,0.0,59,0.00,,---,0.00,VWS V14.01,2013-03-08 05:40:00,
2013-03-08 00:45:00,36.5,23.5,30.05,North,-999,-999.0,0.0,59,0.00,,---,0.00,VWS V14.01,2013-03-08 05:45:00,
2013-03-08 00:50:00,36.4,23.5,30.05,North,-999,-999.0,0.0,59,0.00,,---,0.00,VWS V14.01,2013-03-08 05:50:00,
2013-03-08 00:55:00,36.2,23.7,30.05,North,-999,-999.0,0.0,60,0.00,,---,0.00,VWS V14.01,2013-03-08 05:55:00,
2013-03-08 01:00:00,36.0,23.5,30.05,North,-999,-999.0,0.0,60,0.00,,---,0.00,VWS V14.01,2013-03-08 06:00:00,
2013-03-08 01:06:00,35.8,23.3,30.06,North,-999,-999.0,0.0,60,0.00,,---,0.00,VWS V14.01,2013-03-08 06:06:00,
2013-03-08 01:11:00,35.6,23.5,30.06,North,-999,-999.0,0.0,61,0.00,,---,0.00,VWS V14.01,2013-03-08 06:11:00,
2013-03-08 01:16:00,35.6,23.1,30.05,North,-999,-999.0,0.0,60,0.00,,---,0.00,VWS V14.01,2013-03-08 06:16:00,
2013-03-08 01:21:00,35.5,23.0,30.06,North,-999,-999.0,0.0,60,0.00,,---,0.00,VWS V14.01,2013-03-08 06:21:00,
2013-03-08 01:26:00,35.3,22.8,30.06,North,-999,-999.0,0.0,60,0.00,,---,0.00,VWS V14.01,2013-03-08 06:26:00,
2013-03-08 01:31:00,35.1,23.0,30.06,North,-999,-999.0,0.0,61,0.00,,---,0.00,VWS V14.01,2013-03-08 06:31:00,
2013-03-08 01:36:00,34.9,22.8,30.06,North,-999,-999.0,0.0,61,0.00,,---,0.00,VWS V14.01,2013-03-08 06:36:00,
2013-03-08 01:41:00,34.9,22.8,30.06,North,-999,-999.0,0.0,61,0.00,,---,0.00,VWS V14.01,2013-03-08 06:41:00,
2013-03-08 01:46:00,34.7,22.6,30.06,North,-999,-999.0,0.0,61,0.00,,---,0.00,VWS V14.01,2013-03-08 06:46:00,
2013-03-08 01:51:00,34.6,22.9,30.06,North,-999,-999.0,0.0,62,0.00,,---,0.00,VWS V14.01,2013-03-08 06:51:00,
2013-03-08 01:56:00,34.4,22.7,30.06,North,-999,-999.0,0.0,62,0.00,,---,0.00,VWS V14.01,2013-03-08 06:56:00,
2013-03-08 02:02:00,34.2,22.5,30.06,North,-999,-999.0,0.0,62,0.00,,---,0.00,VWS V14.01,2013-03-08 07:02:00,
2013-03-08 02:07:00,33.8,22.2,30.06,North,-999,-999.0,0.0,62,0.00,,---,0.00,VWS V14.01,2013-03-08 07:07:00,
2013-03-08 02:12:00,33.7,22.1,30.06,North,-999,-999.0,0.0,62,0.00,,---,0.00,VWS V14.01,2013-03-08 07:12:00,
2013-03-08 02:17:00,33.5,21.9,30.06,North,-999,-999.0,0.0,62,0.00,,---,0.00,VWS V14.01,2013-03-08 07:17:00,
2013-03-08 02:22:00,32.9,21.7,30.06,North,-999,-999.0,0.0,63,0.00,,---,0.00,VWS V14.01,2013-03-08 07:22:00,
2013-03-08 02:27:00,32.6,21.8,30.07,North,-999,-999.0,0.0,64,0.00,,---,0.00,VWS V14.01,2013-03-08 07:27:00,
2013-03-08 02:32:00,32.4,22.0,30.06,North,-999,-999.0,0.0,65,0.00,,---,0.00,VWS V14.01,2013-03-08 07:32:00,
2013-03-08 02:37:00,32.2,21.8,30.06,North,-999,-999.0,0.0,65,0.00,,---,0.00,VWS V14.01,2013-03-08 07:37:00,
2013-03-08 02:42:00,32.0,21.6,30.06,North,-999,-999.0,0.0,65,0.00,,---,0.00,VWS V14.01,2013-03-08 07:42:00,
2013-03-08 02:47:00,31.9,21.5,30.06,North,-999,-999.0,0.0,65,0.00,,---,0.00,VWS V14.01,2013-03-08 07:47:00,
2013-03-08 02:52:00,31.7,21.7,30.07,North,-999,-999.0,0.0,66,0.00,,---,0.00,VWS V14.01,2013-03-08 07:52:00,
2013-03-08 02:57:00,31.3,21.3,30.06,North,-999,-999.0,0.0,66,0.00,,---,0.00,VWS V14.01,2013-03-08 07:57:00,
2013-03-08 03:02:00,31.1,21.1,30.06,North,-999,-999.0,0.0,66,0.00,,---,0.00,VWS V14.01,2013-03-08 08:02:00,
2013-03-08 03:08:00,30.8,20.8,30.06,North,-999,-999.0,0.0,66,0.00,,---,0.00,VWS V14.01,2013-03-08 08:08:00,
2013-03-08 03:13:00,30.6,21.0,30.06,North,-999,-999.0,0.0,67,0.00,,---,0.00,VWS V14.01,2013-03-08 08:13:00,
2013-03-08 03:18:00,30.4,20.8,30.06,North,-999,-999.0,0.0,67,0.00,,---,0.00,VWS V14.01,2013-03-08 08:18:00,
2013-03-08 03:23:00,30.2,20.6,30.06,North,-999,-999.0,0.0,67,0.00,,---,0.00,VWS V14.01,2013-03-08 08:23:00,
2013-03-08 03:28:00,29.9,20.6,30.06,North,-999,-999.0,0.0,68,0.00,,---,0.00,VWS V14.01,2013-03-08 08:28:00,
2013-03-08 03:33:00,29.7,20.8,30.06,North,-999,-999.0,0.0,69,0.00,,---,0.00,VWS V14.01,2013-03-08 08:33:00,
2013-03-08 03:38:00,29.9,20.6,30.06,North,-999,-999.0,0.0,68,0.00,,---,0.00,VWS V14.01,2013-03-08 08:38:00,
2013-03-08 03:43:00,29.9,21.0,30.06,North,-999,-999.0,0.0,69,0.00,,---,0.00,VWS V14.01,2013-03-08 08:43:00,
2013-03-08 03:48:00,29.7,20.8,30.06,North,-999,-999.0,0.0,69,0.00,,---,0.00,VWS V14.01,2013-03-08 08:48:00,
2013-03-08 03:53:00,29.5,20.9,30.06,North,-999,-999.0,0.0,70,0.00,,---,0.00,VWS V14.01,2013-03-08 08:53:00,
2013-03-08 03:58:00,29.2,20.6,30.07,North,-999,-999.0,0.0,70,0.00,,---,0.00,VWS V14.01,2013-03-08 08:58:00,
2013-03-08 04:04:00,29.0,20.5,30.07,North,-999,-999.0,0.0,70,0.00,,---,0.00,VWS V14.01,2013-03-08 09:04:00,
2013-03-08 04:09:00,29.0,20.5,30.07,North,-999,-999.0,0.0,70,0.00,,---,0.00,VWS V14.01,2013-03-08 09:09:00,
2013-03-08 04:14:00,29.0,20.8,30.07,North,-999,-999.0,0.0,71,0.00,,---,0.00,VWS V14.01,2013-03-08 09:14:00,
2013-03-08 04:19:00,29.0,20.5,30.06,North,-999,-999.0,0.0,70,0.00,,---,0.00,VWS V14.01,2013-03-08 09:19:00,
2013-03-08 04:24:00,28.8,20.6,30.07,North,-999,-999.0,0.0,71,0.00,,---,0.00,VWS V14.01,2013-03-08 09:24:00,
2013-03-08 04:29:00,28.8,20.6,30.07,North,-999,-999.0,0.0,71,0.00,,---,0.00,VWS V14.01,2013-03-08 09:29:00,
2013-03-08 04:34:00,28.8,20.6,30.07,North,-999,-999.0,0.0,71,0.00,,---,0.00,VWS V14.01,2013-03-08 09:34:00,
2013-03-08 04:39:00,28.6,20.4,30.07,North,-999,-999.0,0.0,71,0.00,,---,0.00,VWS V14.01,2013-03-08 09:39:00,
2013-03-08 04:44:00,28.6,20.7,30.07,North,-999,-999.0,0.0,72,0.00,,---,0.00,VWS V14.01,2013-03-08 09:44:00,
2013-03-08 04:49:00,28.4,20.5,30.08,North,-999,-999.0,0.0,72,0.00,,---,0.00,VWS V14.01,2013-03-08 09:49:00,
2013-03-08 04:54:00,28.3,20.4,30.08,North,-999,-999.0,0.0,72,0.00,,---,0.00,VWS V14.01,2013-03-08 09:54:00,
2013-03-08 04:59:00,28.3,20.4,30.08,North,-999,-999.0,0.0,72,0.00,,---,0.00,VWS V14.01,2013-03-08 09:59:00,
2013-03-08 05:05:00,28.1,20.6,30.07,North,-999,-999.0,0.0,73,0.00,,---,0.00,VWS V14.01,2013-03-08 10:05:00,
2013-03-08 05:10:00,28.1,20.2,30.08,North,-999,-999.0,0.0,72,0.00,,---,0.00,VWS V14.01,2013-03-08 10:10:00,
2013-03-08 05:15:00,27.9,20.4,30.08,North,-999,-999.0,0.0,73,0.00,,---,0.00,VWS V14.01,2013-03-08 10:15:00,
2013-03-08 05:20:00,27.9,20.4,30.08,North,-999,-999.0,0.0,73,0.00,,---,0.00,VWS V14.01,2013-03-08 10:20:00,
2013-03-08 05:25:00,27.7,20.2,30.08,North,-999,-999.0,0.0,73,0.00,,---,0.00,VWS V14.01,2013-03-08 10:25:00,
2013-03-08 05:30:00,27.7,20.2,30.08,North,-999,-999.0,0.0,73,0.00,,---,0.00,VWS V14.01,2013-03-08 10:30:00,
2013-03-08 05:35:00,27.7,20.5,30.08,North,-999,-999.0,0.0,74,0.00,,---,0.00,VWS V14.01,2013-03-08 10:35:00,
2013-03-08 05:40:00,27.7,20.5,30.08,North,-999,-999.0,0.0,74,0.00,,---,0.00,VWS V14.01,2013-03-08 10:40:00,
2013-03-08 05:45:00,27.5,20.3,30.08,North,-999,-999.0,0.0,74,0.00,,---,0.00,VWS V14.01,2013-03-08 10:45:00,
2013-03-08 05:50:00,27.4,20.2,30.08,North,-999,-999.0,0.0,74,0.00,,---,0.00,VWS V14.01,2013-03-08 10:50:00,
2013-03-08 05:55:00,27.4,19.9,30.08,North,-999,-999.0,0.0,73,0.00,,---,0.00,VWS V14.01,2013-03-08 10:55:00,
2013-03-08 06:00:00,27.2,19.7,30.08,North,-999,-999.0,0.0,73,0.00,,---,0.00,VWS V14.01,2013-03-08 11:00:00,
2013-03-08 06:06:00,27.2,20.0,30.08,North,-999,-999.0,0.0,74,0.00,,---,0.00,VWS V14.01,2013-03-08 11:06:00,
2013-03-08 06:11:00,27.0,19.8,30.08,North,-999,-999.0,0.0,74,0.00,,---,0.00,VWS V14.01,2013-03-08 11:11:00,
2013-03-08 06:16:00,27.0,19.8,30.09,North,-999,-999.0,0.0,74,0.00,,---,0.00,VWS V14.01,2013-03-08 11:16:00,
2013-03-08 06:21:00,27.0,20.1,30.09,North,-999,-999.0,0.0,75,0.00,,---,0.00,VWS V14.01,2013-03-08 11:21:00,
2013-03-08 06:26:00,26.8,20.0,30.09,North,-999,-999.0,0.0,75,0.00,,---,0.00,VWS V14.01,2013-03-08 11:26:00,
2013-03-08 06:31:00,26.6,19.8,30.09,North,-999,-999.0,0.0,75,0.00,,---,0.00,VWS V14.01,2013-03-08 11:31:00,
2013-03-08 06:36:00,26.8,20.0,30.09,North,-999,-999.0,0.0,75,0.00,,---,0.00,VWS V14.01,2013-03-08 11:36:00,
2013-03-08 06:41:00,26.6,19.8,30.09,North,-999,-999.0,0.0,75,0.00,,---,0.00,VWS V14.01,2013-03-08 11:41:00,
2013-03-08 06:46:00,26.5,19.7,30.09,North,-999,-999.0,0.0,75,0.00,,---,0.00,VWS V14.01,2013-03-08 11:46:00,
2013-03-08 06:51:00,26.5,20.0,30.10,North,-999,-999.0,0.0,76,0.00,,---,0.00,VWS V14.01,2013-03-08 11:51:00,
2013-03-08 06:56:00,26.5,19.7,30.10,North,-999,-999.0,0.0,75,0.00,,---,0.00,VWS V14.01,2013-03-08 11:56:00,
2013-03-08 07:01:00,26.5,20.0,30.10,North,-999,-999.0,0.0,76,0.00,,---,0.00,VWS V14.01,2013-03-08 12:01:00,
2013-03-08 07:07:00,26.5,20.0,30.11,North,-999,-999.0,0.0,76,0.00,,---,0.00,VWS V14.01,2013-03-08 12:07:00,
2013-03-08 07:12:00,26.5,20.0,30.11,North,-999,-999.0,0.0,76,0.00,,---,0.00,VWS V14.01,2013-03-08 12:12:00,
2013-03-08 07:17:00,26.5,20.0,30.11,North,-999,-999.0,0.0,76,0.00,,---,0.00,VWS V14.01,2013-03-08 12:17:00,
2013-03-08 07:22:00,26.6,20.1,30.11,North,-999,-999.0,0.0,76,0.00,,---,0.00,VWS V14.01,2013-03-08 12:22:00,
2013-03-08 07:27:00,26.8,20.6,30.11,North,-999,-999.0,0.0,77,0.00,,---,0.00,VWS V14.01,2013-03-08 12:27:00,
2013-03-08 07:32:00,27.0,20.8,30.11,North,-999,-999.0,0.0,77,0.00,,---,0.00,VWS V14.01,2013-03-08 12:32:00,
2013-03-08 07:37:00,27.4,21.1,30.11,North,-999,-999.0,0.0,77,0.00,,---,0.00,VWS V14.01,2013-03-08 12:37:00,
2013-03-08 07:42:00,27.7,21.4,30.11,North,-999,-999.0,0.0,77,0.00,,---,0.00,VWS V14.01,2013-03-08 12:42:00,
2013-03-08 07:47:00,28.1,21.8,30.11,North,-999,-999.0,0.0,77,0.00,,---,0.00,VWS V14.01,2013-03-08 12:47:00,
2013-03-08 07:52:00,28.4,22.1,30.11,North,-999,-999.0,0.0,77,0.00,,---,0.00,VWS V14.01,2013-03-08 12:52:00,
2013-03-08 07:57:00,29.0,22.7,30.11,North,-999,-999.0,0.0,77,0.00,,---,0.00,VWS V14.01,2013-03-08 12:57:00,
2013-03-08 08:02:00,29.5,23.5,30.12,North,-999,-999.0,0.0,78,0.00,,---,0.00,VWS V14.01,2013-03-08 13:02:00,
2013-03-08 08:08:00,30.1,24.1,30.12,North,-999,-999.0,0.0,78,0.00,,---,0.00,VWS V14.01,2013-03-08 13:08:00,
2013-03-08 08:13:00,30.8,24.8,30.12,North,-999,-999.0,0.0,78,0.00,,---,0.00,VWS V14.01,2013-03-08 13:13:00,
2013-03-08 08:18:00,31.5,25.4,30.12,North,-999,-999.0,0.0,78,0.00,,---,0.00,VWS V14.01,2013-03-08 13:18:00,
2013-03-08 08:23:00,32.2,26.1,30.12,North,-999,-999.0,0.0,78,0.00,,---,0.00,VWS V14.01,2013-03-08 13:23:00,
2013-03-08 08:28:00,33.1,26.7,30.12,North,-999,-999.0,0.0,77,0.00,,---,0.00,VWS V14.01,2013-03-08 13:28:00,
2013-03-08 08:33:00,33.7,27.0,30.13,North,-999,-999.0,0.0,76,0.00,,---,0.00,VWS V14.01,2013-03-08 13:33:00,
2013-03-08 08:38:00,34.6,27.5,30.13,North,-999,-999.0,0.0,75,0.00,,---,0.00,VWS V14.01,2013-03-08 13:38:00,
2013-03-08 08:43:00,35.5,27.7,30.12,North,-999,-999.0,0.0,73,0.00,,---,0.00,VWS V14.01,2013-03-08 13:43:00,
2013-03-08 08:48:00,36.2,28.4,30.12,North,-999,-999.0,0.0,73,0.00,,---,0.00,VWS V14.01,2013-03-08 13:48:00,
2013-03-08 08:53:00,37.3,29.1,30.12,North,-999,-999.0,0.0,72,0.00,,---,0.00,VWS V14.01,2013-03-08 13:53:00,
2013-03-08 08:58:00,38.0,28.8,30.13,North,-999,-999.0,0.0,69,0.00,,---,0.00,VWS V14.01,2013-03-08 13:58:00,
2013-03-08 09:04:00,38.9,28.5,30.13,North,-999,-999.0,0.0,66,0.00,,---,0.00,VWS V14.01,2013-03-08 14:04:00,
2013-03-08 09:09:00,39.6,29.6,30.13,North,-999,-999.0,0.0,67,0.00,,---,0.00,VWS V14.01,2013-03-08 14:09:00,
2013-03-08 09:14:00,41.9,30.6,30.13,North,-999,-999.0,0.0,64,0.00,,---,0.00,VWS V14.01,2013-03-08 14:14:00,
2013-03-08 09:19:00,45.5,30.7,30.13,North,-999,-999.0,0.0,56,0.00,,---,0.00,VWS V14.01,2013-03-08 14:19:00,
2013-03-08 09:24:00,48.4,34.3,30.13,North,-999,-999.0,0.0,58,0.00,,---,0.00,VWS V14.01,2013-03-08 14:24:00,
2013-03-08 09:29:00,51.5,35.4,30.13,North,-999,-999.0,0.0,54,0.00,,---,0.00,VWS V14.01,2013-03-08 14:29:00,
2013-03-08 09:34:00,52.6,32.4,30.13,North,-999,-999.0,0.0,46,0.00,,---,0.00,VWS V14.01,2013-03-08 14:34:00,
2013-03-08 09:39:00,52.9,32.7,30.13,North,-999,-999.0,0.0,46,0.00,,---,0.00,VWS V14.01,2013-03-08 14:39:00,
2013-03-08 09:44:00,54.5,33.0,30.13,North,-999,-999.0,0.0,44,0.00,,---,0.00,VWS V14.01,2013-03-08 14:44:00,
2013-03-08 09:49:00,54.9,34.5,30.13,North,-999,-999.0,0.0,46,0.00,,---,0.00,VWS V14.01,2013-03-08 14:49:00,
2013-03-08 09:54:00,56.3,33.5,30.13,North,-999,-999.0,0.0,42,0.00,,---,0.00,VWS V14.01,2013-03-08 14:54:00,
2013-03-08 09:59:00,56.7,32.7,30.13,North,-999,-999.0,0.0,40,0.00,,---,0.00,VWS V14.01,2013-03-08 14:59:00,
2013-03-08 10:04:00,57.6,34.1,30.13,North,-999,-999.0,0.0,41,0.00,,---,0.00,VWS V14.01,2013-03-08 15:04:00,
2013-03-08 10:10:00,58.9,34.6,30.13,North,-999,-999.0,0.0,40,0.00,,---,0.00,VWS V14.01,2013-03-08 15:10:00,
2013-03-08 10:15:00,59.2,33.0,30.13,North,-999,-999.0,0.0,37,0.00,,---,0.00,VWS V14.01,2013-03-08 15:15:00,
2013-03-08 10:20:00,59.6,34.0,30.13,North,-999,-999.0,0.0,38,0.00,,---,0.00,VWS V14.01,2013-03-08 15:20:00,
2013-03-08 10:25:00,60.1,33.1,30.13,North,-999,-999.0,0.0,36,0.00,,---,0.00,VWS V14.01,2013-03-08 15:25:00,
2013-03-08 10:30:00,59.9,30.8,30.13,North,-999,-999.0,0.0,33,0.00,,---,0.00,VWS V14.01,2013-03-08 15:30:00,
2013-03-08 10:35:00,60.3,31.1,30.13,North,-999,-999.0,0.0,33,0.00,,---,0.00,VWS V14.01,2013-03-08 15:35:00,
2013-03-08 10:40:00,59.9,31.5,30.13,North,-999,-999.0,0.0,34,0.00,,---,0.00,VWS V14.01,2013-03-08 15:40:00,
2013-03-08 10:45:00,60.7,32.2,30.13,North,-999,-999.0,0.0,34,0.00,,---,0.00,VWS V14.01,2013-03-08 15:45:00,
2013-03-08 10:50:00,60.8,32.3,30.12,North,-999,-999.0,0.0,34,0.00,,---,0.00,VWS V14.01,2013-03-08 15:50:00,
2013-03-08 10:55:00,61.6,31.5,30.12,North,-999,-999.0,0.0,32,0.00,,---,0.00,VWS V14.01,2013-03-08 15:55:00,
2013-03-08 11:00:00,61.6,29.9,30.12,North,-999,-999.0,0.0,30,0.00,,---,0.00,VWS V14.01,2013-03-08 16:00:00,
2013-03-08 11:06:00,61.0,31.0,30.12,North,-999,-999.0,0.0,32,0.00,,---,0.00,VWS V14.01,2013-03-08 16:06:00,
2013-03-08 11:11:00,62.6,31.6,30.12,North,-999,-999.0,0.0,31,0.00,,---,0.00,VWS V14.01,2013-03-08 16:11:00,
2013-03-08 11:16:00,62.5,29.0,30.12,North,-999,-999.0,0.0,28,0.00,,---,0.00,VWS V14.01,2013-03-08 16:16:00,
2013-03-08 11:21:00,63.0,29.4,30.11,North,-999,-999.0,0.0,28,0.00,,---,0.00,VWS V14.01,2013-03-08 16:21:00,
2013-03-08 11:26:00,64.8,32.7,30.11,North,-999,-999.0,0.0,30,0.00,,---,0.00,VWS V14.01,2013-03-08 16:26:00,
2013-03-08 11:31:00,66.6,34.2,30.11,North,-999,-999.0,0.0,30,0.00,,---,0.00,VWS V14.01,2013-03-08 16:31:00,
2013-03-08 11:36:00,65.9,30.1,30.11,North,-999,-999.0,0.0,26,0.00,,---,0.00,VWS V14.01,2013-03-08 16:36:00,
2013-03-08 11:41:00,62.3,27.0,30.11,North,-999,-999.0,0.0,26,0.00,,---,0.00,VWS V14.01,2013-03-08 16:41:00,
2013-03-08 11:46:00,62.5,26.2,30.11,North,-999,-999.0,0.0,25,0.00,,---,0.00,VWS V14.01,2013-03-08 16:46:00,
2013-03-08 11:51:00,63.7,30.0,30.10,North,-999,-999.0,0.0,28,0.00,,---,0.00,VWS V14.01,2013-03-08 16:51:00,
2013-03-08 11:56:00,66.1,30.2,30.10,North,-999,-999.0,0.0,26,0.00,,---,0.00,VWS V14.01,2013-03-08 16:56:00,
2013-03-08 12:02:00,68.2,31.1,30.10,North,-999,-999.0,0.0,25,0.00,,---,0.00,VWS V14.01,2013-03-08 17:02:00,
2013-03-08 12:07:00,68.2,30.1,30.10,North,-999,-999.0,0.0,24,0.00,,---,0.00,VWS V14.01,2013-03-08 17:07:00,
2013-03-08 12:12:00,68.4,31.2,30.10,North,-999,-999.0,0.0,25,0.00,,---,0.00,VWS V14.01,2013-03-08 17:12:00,
2013-03-08 12:17:00,68.9,31.7,30.10,North,-999,-999.0,0.0,25,0.00,,---,0.00,VWS V14.01,2013-03-08 17:17:00,
2013-03-08 12:22:00,67.0,28.0,30.09,North,-999,-999.0,0.0,23,0.00,,---,0.00,VWS V14.01,2013-03-08 17:22:00,
2013-03-08 12:27:00,67.0,29.0,30.09,North,-999,-999.0,0.0,24,0.00,,---,0.00,VWS V14.01,2013-03-08 17:27:00,
2013-03-08 12:32:00,67.9,30.8,30.09,North,-999,-999.0,0.0,25,0.00,,---,0.00,VWS V14.01,2013-03-08 17:32:00,
2013-03-08 12:37:00,68.8,30.6,30.09,North,-999,-999.0,0.0,24,0.00,,---,0.00,VWS V14.01,2013-03-08 17:37:00,
2013-03-08 12:42:00,69.7,31.3,30.09,North,-999,-999.0,0.0,24,0.00,,---,0.00,VWS V14.01,2013-03-08 17:42:00,
2013-03-08 12:47:00,69.7,29.2,30.09,North,-999,-999.0,0.0,22,0.00,,---,0.00,VWS V14.01,2013-03-08 17:47:00,
2013-03-08 12:52:00,69.8,30.4,30.08,North,-999,-999.0,0.0,23,0.00,,---,0.00,VWS V14.01,2013-03-08 17:52:00,
2013-03-08 12:57:00,70.9,29.0,30.08,North,-999,-999.0,0.0,21,0.00,,---,0.00,VWS V14.01,2013-03-08 17:57:00,
2013-03-08 13:02:00,70.7,30.0,30.08,North,-999,-999.0,0.0,22,0.00,,---,0.00,VWS V14.01,2013-03-08 18:02:00,
2013-03-08 13:08:00,71.5,29.5,30.08,North,-999,-999.0,0.0,21,0.00,,---,0.00,VWS V14.01,2013-03-08 18:08:00,
2013-03-08 13:13:00,71.6,30.8,30.08,North,-999,-999.0,0.0,22,0.00,,---,0.00,VWS V14.01,2013-03-08 18:13:00,
2013-03-08 13:18:00,71.8,30.9,30.07,North,-999,-999.0,0.0,22,0.00,,---,0.00,VWS V14.01,2013-03-08 18:18:00,
2013-03-08 13:23:00,72.7,31.7,30.06,North,-999,-999.0,0.0,22,0.00,,---,0.00,VWS V14.01,2013-03-08 18:23:00,
2013-03-08 13:29:00,73.4,31.1,30.06,North,-999,-999.0,0.0,21,0.00,,---,0.00,VWS V14.01,2013-03-08 18:29:00,
2013-03-08 13:34:00,73.3,31.0,30.06,North,-999,-999.0,0.0,21,0.00,,---,0.00,VWS V14.01,2013-03-08 18:34:00,
2013-03-08 13:39:00,72.9,30.7,30.06,North,-999,-999.0,0.0,21,0.00,,---,0.00,VWS V14.01,2013-03-08 18:39:00,
2013-03-08 13:44:00,73.3,28.6,30.06,North,-999,-999.0,0.0,19,0.00,,---,0.00,VWS V14.01,2013-03-08 18:44:00,
2013-03-08 13:49:00,73.4,28.7,30.06,North,-999,-999.0,0.0,19,0.00,,---,0.00,VWS V14.01,2013-03-08 18:49:00,
2013-03-08 13:54:00,74.0,29.2,30.05,North,-999,-999.0,0.0,19,0.00,,---,0.00,VWS V14.01,2013-03-08 18:54:00,
2013-03-08 13:59:00,74.0,29.2,30.05,North,-999,-999.0,0.0,19,0.00,,---,0.00,VWS V14.01,2013-03-08 18:59:00,
2013-03-08 14:05:00,73.6,31.3,30.05,North,-999,-999.0,0.0,21,0.00,,---,0.00,VWS V14.01,2013-03-08 19:05:00,
2013-03-08 14:11:00,73.8,31.5,30.05,North,-999,-999.0,0.0,21,0.00,,---,0.00,VWS V14.01,2013-03-08 19:11:00,
2013-03-08 14:16:00,73.6,28.8,30.05,North,-999,-999.0,0.0,19,0.00,,---,0.00,VWS V14.01,2013-03-08 19:16:00,
2013-03-08 14:21:00,73.1,30.9,30.05,North,-999,-999.0,0.0,21,0.00,,---,0.00,VWS V14.01,2013-03-08 19:21:00,
2013-03-08 14:26:00,74.5,28.2,30.04,North,-999,-999.0,0.0,18,0.00,,---,0.00,VWS V14.01,2013-03-08 19:26:00,
2013-03-08 14:31:00,74.5,29.6,30.04,North,-999,-999.0,0.0,19,0.00,,---,0.00,VWS V14.01,2013-03-08 19:31:00,
2013-03-08 14:36:00,74.7,29.7,30.04,North,-999,-999.0,0.0,19,0.00,,---,0.00,VWS V14.01,2013-03-08 19:36:00,
2013-03-08 14:41:00,75.1,27.4,30.04,North,-999,-999.0,0.0,17,0.00,,---,0.00,VWS V14.01,2013-03-08 19:41:00,
2013-03-08 14:46:00,72.9,27.0,30.04,North,-999,-999.0,0.0,18,0.00,,---,0.00,VWS V14.01,2013-03-08 19:46:00,
2013-03-08 14:51:00,73.3,29.8,30.04,North,-999,-999.0,0.0,20,0.00,,---,0.00,VWS V14.01,2013-03-08 19:51:00,
2013-03-08 14:56:00,75.2,32.6,30.03,North,-999,-999.0,0.0,21,0.00,,---,0.00,VWS V14.01,2013-03-08 19:56:00,
2013-03-08 15:01:00,76.5,28.5,30.03,North,-999,-999.0,0.0,17,0.00,,---,0.00,VWS V14.01,2013-03-08 20:01:00,
2013-03-08 15:07:00,73.3,27.3,30.03,North,-999,-999.0,0.0,18,0.00,,---,0.00,VWS V14.01,2013-03-08 20:07:00,
2013-03-08 15:12:00,74.0,29.2,30.02,North,-999,-999.0,0.0,19,0.00,,---,0.00,VWS V14.01,2013-03-08 20:12:00,
2013-03-08 15:17:00,74.2,28.0,30.03,North,-999,-999.0,0.0,18,0.00,,---,0.00,VWS V14.01,2013-03-08 20:17:00,
2013-03-08 15:22:00,75.2,28.8,30.02,North,-999,-999.0,0.0,18,0.00,,---,0.00,VWS V14.01,2013-03-08 20:22:00,
2013-03-08 15:27:00,75.8,29.3,30.02,North,-999,-999.0,0.0,18,0.00,,---,0.00,VWS V14.01,2013-03-08 20:27:00,
2013-03-08 15:32:00,75.8,27.9,30.02,North,-999,-999.0,0.0,17,0.00,,---,0.00,VWS V14.01,2013-03-08 20:32:00,
2013-03-08 15:37:00,76.1,28.2,30.02,North,-999,-999.0,0.0,17,0.00,,---,0.00,VWS V14.01,2013-03-08 20:37:00,
2013-03-08 15:44:00,76.1,28.2,30.02,North,-999,-999.0,0.0,17,0.00,,---,0.00,VWS V14.01,2013-03-08 20:44:00,
2013-03-08 15:49:00,77.4,29.2,30.01,North,-999,-999.0,0.0,17,0.00,,---,0.00,VWS V14.01,2013-03-08 20:49:00,
2013-03-08 15:54:00,75.4,27.6,30.00,North,-999,-999.0,0.0,17,0.00,,---,0.00,VWS V14.01,2013-03-08 20:54:00,
2013-03-08 15:59:00,76.0,29.5,30.01,North,-999,-999.0,0.0,18,0.00,,---,0.00,VWS V14.01,2013-03-08 20:59:00,
2013-03-08 16:05:00,76.5,28.5,30.00,North,-999,-999.0,0.0,17,0.00,,---,0.00,VWS V14.01,2013-03-08 21:05:00,
2013-03-08 16:10:00,77.2,30.5,30.00,North,-999,-999.0,0.0,18,0.00,,---,0.00,VWS V14.01,2013-03-08 21:10:00,
2013-03-08 16:15:00,78.1,29.8,30.00,North,-999,-999.0,0.0,17,0.00,,---,0.00,VWS V14.01,2013-03-08 21:15:00,
2013-03-08 16:20:00,77.9,29.6,30.00,North,-999,-999.0,0.0,17,0.00,,---,0.00,VWS V14.01,2013-03-08 21:20:00,
2013-03-08 16:25:00,76.9,28.8,30.00,North,-999,-999.0,0.0,17,0.00,,---,0.00,VWS V14.01,2013-03-08 21:25:00,
2013-03-08 16:30:00,76.9,28.8,30.00,North,-999,-999.0,0.0,17,0.00,,---,0.00,VWS V14.01,2013-03-08 21:30:00,
2013-03-08 16:35:00,76.0,28.1,30.00,North,-999,-999.0,0.0,17,0.00,,---,0.00,VWS V14.01,2013-03-08 21:35:00,
2013-03-08 16:40:00,76.7,30.0,30.00,North,-999,-999.0,0.0,18,0.00,,---,0.00,VWS V14.01,2013-03-08 21:40:00,
2013-03-08 16:45:00,77.4,30.6,30.00,North,-999,-999.0,0.0,18,0.00,,---,0.00,VWS V14.01,2013-03-08 21:45:00,
2013-03-08 16:50:00,76.7,28.6,30.00,North,-999,-999.0,0.0,17,0.00,,---,0.00,VWS V14.01,2013-03-08 21:50:00,
2013-03-08 16:55:00,77.2,27.6,30.00,North,-999,-999.0,0.0,16,0.00,,---,0.00,VWS V14.01,2013-03-08 21:55:00,
2013-03-08 17:01:00,76.7,27.2,30.00,North,-999,-999.0,0.0,16,0.00,,---,0.00,VWS V14.01,2013-03-08 22:01:00,
2013-03-08 17:06:00,74.7,27.0,30.00,North,-999,-999.0,0.0,17,0.00,,---,0.00,VWS V14.01,2013-03-08 22:06:00,
2013-03-08 17:11:00,74.9,27.2,30.00,North,-999,-999.0,0.0,17,0.00,,---,0.00,VWS V14.01,2013-03-08 22:11:00,
2013-03-08 17:16:00,75.2,27.4,30.00,North,-999,-999.0,0.0,17,0.00,,---,0.00,VWS V14.01,2013-03-08 22:16:00,
2013-03-08 17:21:00,74.7,28.4,30.00,North,-999,-999.0,0.0,18,0.00,,---,0.00,VWS V14.01,2013-03-08 22:21:00,
2013-03-08 17:26:00,74.9,28.6,30.01,North,-999,-999.0,0.0,18,0.00,,---,0.00,VWS V14.01,2013-03-08 22:26:00,
2013-03-08 17:32:00,74.7,28.4,30.01,North,-999,-999.0,0.0,18,0.00,,---,0.00,VWS V14.01,2013-03-08 22:32:00,
2013-03-08 17:37:00,74.5,28.2,30.01,North,-999,-999.0,0.0,18,0.00,,---,0.00,VWS V14.01,2013-03-08 22:37:00,
2013-03-08 17:42:00,73.8,27.7,30.01,North,-999,-999.0,0.0,18,0.00,,---,0.00,VWS V14.01,2013-03-08 22:42:00,
2013-03-08 17:47:00,70.9,25.3,30.01,North,-999,-999.0,0.0,18,0.00,,---,0.00,VWS V14.01,2013-03-08 22:47:00,
2013-03-08 17:52:00,69.8,25.7,30.01,North,-999,-999.0,0.0,19,0.00,,---,0.00,VWS V14.01,2013-03-08 22:52:00,
2013-03-08 17:58:00,69.3,27.7,30.01,North,-999,-999.0,0.0,21,0.00,,---,0.00,VWS V14.01,2013-03-08 22:58:00,
2013-03-08 18:03:00,68.2,26.8,30.01,North,-999,-999.0,0.0,21,0.00,,---,0.00,VWS V14.01,2013-03-08 23:03:00,
2013-03-08 18:08:00,66.6,26.6,30.01,North,-999,-999.0,0.0,22,0.00,,---,0.00,VWS V14.01,2013-03-08 23:08:00,
2013-03-08 18:13:00,65.2,25.4,30.01,North,-999,-999.0,0.0,22,0.00,,---,0.00,VWS V14.01,2013-03-08 23:13:00,
2013-03-08 18:18:00,63.7,25.2,30.01,North,-999,-999.0,0.0,23,0.00,,---,0.00,VWS V14.01,2013-03-08 23:18:00,
2013-03-08 18:23:00,62.3,25.1,30.01,North,-999,-999.0,0.0,24,0.00,,---,0.00,VWS V14.01,2013-03-08 23:23:00,
2013-03-08 18:28:00,61.2,24.1,30.02,North,-999,-999.0,0.0,24,0.00,,---,0.00,VWS V14.01,2013-03-08 23:28:00,
2013-03-08 18:33:00,60.1,24.2,30.02,North,-999,-999.0,0.0,25,0.00,,---,0.00,VWS V14.01,2013-03-08 23:33:00,
2013-03-08 18:38:00,58.7,24.8,30.02,North,-999,-999.0,0.0,27,0.00,,---,0.00,VWS V14.01,2013-03-08 23:38:00,
2013-03-08 18:44:00,58.7,24.8,30.02,North,-999,-999.0,0.0,27,0.00,,---,0.00,VWS V14.01,2013-03-08 23:44:00,
2013-03-08 19:00:00,55.4,25.3,30.03,North,-999,-999.0,0.0,31,0.00,,---,0.00,VWS V14.01,2013-03-09 00:00:00,
2013-03-08 19:07:00,55.4,25.3,30.03,North,-999,-999.0,0.0,31,0.00,,---,0.00,VWS V14.01,2013-03-09 00:07:00,
2013-03-08 20:59:00,42.1,24.8,30.08,North,-999,-999.0,0.0,50,0.00,,---,0.00,VWS V14.01,2013-03-09 01:59:00,
2013-03-08 21:05:00,41.6,24.8,30.08,North,-999,-999.0,0.0,51,0.00,,---,0.00,VWS V14.01,2013-03-09 02:05:00,
2013-03-08 21:10:00,41.4,25.1,30.08,North,-999,-999.0,0.0,52,0.00,,---,0.00,VWS V14.01,2013-03-09 02:10:00,
2013-03-08 21:15:00,40.9,24.6,30.08,North,-999,-999.0,0.0,52,0.00,,---,0.00,VWS V14.01,2013-03-09 02:15:00,
2013-03-08 21:20:00,40.7,24.9,30.09,North,-999,-999.0,0.0,53,0.00,,---,0.00,VWS V14.01,2013-03-09 02:20:00,
2013-03-08 21:25:00,40.3,25.4,30.08,North,-999,-999.0,0.0,55,0.00,,---,0.00,VWS V14.01,2013-03-09 02:25:00,
2013-03-08 21:30:00,40.0,25.1,30.08,North,-999,-999.0,0.0,55,0.00,,---,0.00,VWS V14.01,2013-03-09 02:30:00,
2013-03-08 21:35:00,39.6,24.8,30.08,North,-999,-999.0,0.0,55,0.00,,---,0.00,VWS V14.01,2013-03-09 02:35:00,
2013-03-08 21:40:00,39.2,24.8,30.08,North,-999,-999.0,0.0,56,0.00,,---,0.00,VWS V14.01,2013-03-09 02:40:00,
2013-03-08 21:45:00,38.9,25.0,30.08,North,-999,-999.0,0.0,57,0.00,,---,0.00,VWS V14.01,2013-03-09 02:45:00,
2013-03-08 21:50:00,38.7,25.2,30.08,North,-999,-999.0,0.0,58,0.00,,---,0.00,VWS V14.01,2013-03-09 02:50:00,
2013-03-08 21:55:00,38.5,25.0,30.08,North,-999,-999.0,0.0,58,0.00,,---,0.00,VWS V14.01,2013-03-09 02:55:00,
2013-03-08 22:00:00,38.3,25.2,30.08,North,-999,-999.0,0.0,59,0.00,,---,0.00,VWS V14.01,2013-03-09 03:00:00,
2013-03-08 22:06:00,38.2,25.1,30.08,North,-999,-999.0,0.0,59,0.00,,---,0.00,VWS V14.01,2013-03-09 03:06:00,
2013-03-08 22:11:00,37.8,25.2,30.08,North,-999,-999.0,0.0,60,0.00,,---,0.00,VWS V14.01,2013-03-09 03:11:00,
2013-03-08 22:16:00,37.4,24.8,30.08,North,-999,-999.0,0.0,60,0.00,,---,0.00,VWS V14.01,2013-03-09 03:16:00,
2013-03-08 22:21:00,37.1,24.5,30.08,North,-999,-999.0,0.0,60,0.00,,---,0.00,VWS V14.01,2013-03-09 03:21:00,
2013-03-08 22:26:00,36.9,24.3,30.08,North,-999,-999.0,0.0,60,0.00,,---,0.00,VWS V14.01,2013-03-09 03:26:00,
2013-03-08 22:31:00,36.9,24.3,30.08,North,-999,-999.0,0.0,60,0.00,,---,0.00,VWS V14.01,2013-03-09 03:31:00,
2013-03-08 22:36:00,36.5,24.3,30.09,North,-999,-999.0,0.0,61,0.00,,---,0.00,VWS V14.01,2013-03-09 03:36:00,
2013-03-08 22:41:00,36.2,24.1,30.09,North,-999,-999.0,0.0,61,0.00,,---,0.00,VWS V14.01,2013-03-09 03:41:00,
2013-03-08 22:46:00,36.2,24.1,30.09,North,-999,-999.0,0.0,61,0.00,,---,0.00,VWS V14.01,2013-03-09 03:46:00,
2013-03-08 22:51:00,36.0,24.3,30.09,North,-999,-999.0,0.0,62,0.00,,---,0.00,VWS V14.01,2013-03-09 03:51:00,
2013-03-08 22:56:00,36.0,24.3,30.09,North,-999,-999.0,0.0,62,0.00,,---,0.00,VWS V14.01,2013-03-09 03:56:00,
2013-03-08 23:02:00,35.8,24.1,30.09,North,-999,-999.0,0.0,62,0.00,,---,0.00,VWS V14.01,2013-03-09 04:02:00,
2013-03-08 23:07:00,35.6,24.3,30.09,North,-999,-999.0,0.0,63,0.00,,---,0.00,VWS V14.01,2013-03-09 04:07:00,
2013-03-08 23:12:00,35.5,24.5,30.09,North,-999,-999.0,0.0,64,0.00,,---,0.00,VWS V14.01,2013-03-09 04:12:00,
2013-03-08 23:17:00,35.1,24.2,30.09,North,-999,-999.0,0.0,64,0.00,,---,0.00,VWS V14.01,2013-03-09 04:17:00,
2013-03-08 23:22:00,34.9,23.6,30.09,North,-999,-999.0,0.0,63,0.00,,---,0.00,VWS V14.01,2013-03-09 04:22:00,
2013-03-08 23:27:00,34.9,24.0,30.09,North,-999,-999.0,0.0,64,0.00,,---,0.00,VWS V14.01,2013-03-09 04:27:00,
2013-03-08 23:32:00,34.7,23.8,30.09,North,-999,-999.0,0.0,64,0.00,,---,0.00,VWS V14.01,2013-03-09 04:32:00,
2013-03-08 23:37:00,34.6,23.7,30.09,North,-999,-999.0,0.0,64,0.00,,---,0.00,VWS V14.01,2013-03-09 04:37:00,
2013-03-08 23:42:00,34.6,23.7,30.10,North,-999,-999.0,0.0,64,0.00,,---,0.00,VWS V14.01,2013-03-09 04:42:00,
2013-03-08 23:47:00,34.4,23.9,30.10,North,-999,-999.0,0.0,65,0.00,,---,0.00,VWS V14.01,2013-03-09 04:47:00,
2013-03-08 23:52:00,34.2,23.7,30.10,North,-999,-999.0,0.0,65,0.00,,---,0.00,VWS V14.01,2013-03-09 04:52:00,
2013-03-08 23:57:00,34.2,23.7,30.10,North,-999,-999.0,0.0,65,0.00,,---,0.00,VWS V14.01,2013-03-09 04:57:00,